BAW255 EDDF-EGLL

Flight info

Callsign BAW255
Flight time 1h 7m
Altitude 38000
Route OBOKA3W/25C OBOKA Z29 TORNU DCT ABNED L980 LOGAN
Aircraft A320/M-SDE3FGHIRWY/LB1

Departure

Time 2026-05-04 17:43
Airport Frankfurt Main Airport (EDDF)

Arrival

Time 2026-05-04 18:51
Airport London Heathrow Airport (EGLL)
Time Latitude Longitude Altitude Speed Heading
2026-05-04 17:16 50.05029 8.58531 361 ft 0 kts 340°
2026-05-04 17:23 50.05028 8.58531 360 ft 0 kts 340°
2026-05-04 17:35 50.04975 8.58561 364 ft 4 kts 342°
2026-05-04 17:35 50.04928 8.58563 359 ft 4 kts 48°
2026-05-04 17:35 50.04922 8.58552 359 ft 0 kts 69°
2026-05-04 17:39 50.04924 8.58558 359 ft 2 kts 69°
2026-05-04 17:39 50.04934 8.58602 363 ft 6 kts 70°
2026-05-04 17:39 50.04912 8.58667 360 ft 10 kts 146°
2026-05-04 17:40 50.04845 8.58708 363 ft 10 kts 159°
2026-05-04 17:40 50.04783 8.58744 366 ft 9 kts 159°
2026-05-04 17:40 50.04727 8.58770 369 ft 8 kts 174°
2026-05-04 17:40 50.04709 8.58769 369 ft 0 kts 183°
2026-05-04 17:41 50.04685 8.58767 370 ft 8 kts 185°
2026-05-04 17:41 50.04587 8.58727 371 ft 17 kts 214°
2026-05-04 17:41 50.04493 8.58605 371 ft 16 kts 232°
2026-05-04 17:42 50.04474 8.58539 370 ft 0 kts 249°
2026-05-04 17:42 50.04474 8.58538 370 ft 1 kts 249°
2026-05-04 17:42 50.04447 8.58422 370 ft 37 kts 250°
2026-05-04 17:43 50.04272 8.57684 362 ft 104 kts 250°
2026-05-04 17:43 50.03957 8.56362 358 ft 155 kts 249°
2026-05-04 17:43 50.03530 8.54670 665 ft 172 kts 249°
2026-05-04 17:43 50.03087 8.52914 1317 ft 175 kts 251°
2026-05-04 17:44 50.02656 8.51113 1898 ft 185 kts 250°
2026-05-04 17:44 50.01899 8.49350 2278 ft 206 kts 224°
2026-05-04 17:44 50.00655 8.48194 2904 ft 213 kts 197°
2026-05-04 17:44 49.99203 8.47790 3756 ft 212 kts 188°
2026-05-04 17:45 49.97749 8.47471 4650 ft 211 kts 188°
2026-05-04 17:45 49.96295 8.47143 5512 ft 211 kts 191°
2026-05-04 17:45 49.94829 8.46527 6069 ft 230 kts 196°
2026-05-04 17:45 49.93254 8.45793 6754 ft 240 kts 199°
2026-05-04 17:46 49.91766 8.44583 7629 ft 244 kts 216°
2026-05-04 17:46 49.90578 8.42691 8542 ft 248 kts 234°
2026-05-04 17:46 49.89683 8.40395 9457 ft 250 kts 237°
2026-05-04 17:46 49.88916 8.37966 10287 ft 254 kts 250°
2026-05-04 17:47 49.88601 8.35203 10838 ft 272 kts 266°
2026-05-04 17:47 49.88728 8.32141 11115 ft 297 kts 271°
2026-05-04 17:47 49.88945 8.28836 11389 ft 319 kts 278°
2026-05-04 17:47 49.89681 8.25521 11982 ft 332 kts 294°
2026-05-04 17:48 49.90982 8.22514 12695 ft 339 kts 303°
2026-05-04 17:48 49.92398 8.19559 13446 ft 343 kts 303°
2026-05-04 17:48 49.93854 8.16601 14135 ft 348 kts 308°
2026-05-04 17:48 49.95614 8.13971 14775 ft 354 kts 316°
2026-05-04 17:49 49.97502 8.11466 15416 ft 358 kts 316°
2026-05-04 17:49 49.99396 8.08943 16041 ft 361 kts 316°
2026-05-04 17:49 50.01310 8.06388 16673 ft 364 kts 316°
2026-05-04 17:49 50.03235 8.03806 17311 ft 367 kts 316°
2026-05-04 17:50 50.05178 8.01198 17954 ft 371 kts 316°
2026-05-04 17:50 50.07138 7.98562 18542 ft 374 kts 316°
2026-05-04 17:50 50.09115 7.95903 19112 ft 377 kts 316°
2026-05-04 17:50 50.11112 7.93221 19685 ft 380 kts 316°
2026-05-04 17:51 50.13119 7.90521 19923 ft 382 kts 316°
2026-05-04 17:51 50.15104 7.87849 19990 ft 382 kts 316°
2026-05-04 17:51 50.17148 7.85091 20385 ft 385 kts 316°
2026-05-04 17:51 50.19178 7.82349 20990 ft 388 kts 316°
2026-05-04 17:52 50.21222 7.79581 21561 ft 390 kts 316°
2026-05-04 17:52 50.23256 7.76825 22120 ft 393 kts 315°
2026-05-04 17:52 50.25427 7.74186 22662 ft 399 kts 324°
2026-05-04 17:52 50.27896 7.72126 23223 ft 406 kts 333°
2026-05-04 17:53 50.30506 7.70360 23758 ft 409 kts 333°
2026-05-04 17:53 50.33121 7.68579 24219 ft 412 kts 333°
2026-05-04 17:53 50.35758 7.66778 24678 ft 415 kts 333°
2026-05-04 17:53 50.38411 7.64963 25106 ft 418 kts 333°
2026-05-04 17:54 50.41083 7.63127 25531 ft 420 kts 332°
2026-05-04 17:54 50.43770 7.61277 25971 ft 423 kts 332°
2026-05-04 17:54 50.46473 7.59412 26374 ft 426 kts 332°
2026-05-04 17:54 50.49199 7.57529 26770 ft 429 kts 332°
2026-05-04 17:55 50.51947 7.55628 27161 ft 432 kts 332°
2026-05-04 17:55 50.54700 7.53717 27541 ft 435 kts 330°
2026-05-04 17:55 50.57339 7.51418 27923 ft 433 kts 322°
2026-05-04 17:55 50.59868 7.48824 28302 ft 435 kts 322°
2026-05-04 17:56 50.62412 7.46214 28664 ft 438 kts 322°
2026-05-04 17:56 50.64975 7.43584 29046 ft 441 kts 321°
2026-05-04 17:56 50.67550 7.40935 29426 ft 444 kts 321°
2026-05-04 17:56 50.70143 7.38264 29800 ft 446 kts 320°
2026-05-04 17:57 50.72586 7.35291 30158 ft 442 kts 311°
2026-05-04 17:57 50.74690 7.31790 30483 ft 437 kts 302°
2026-05-04 17:57 50.76408 7.27885 30815 ft 432 kts 294°
2026-05-04 17:57 50.77804 7.23691 31136 ft 431 kts 291°
2026-05-04 17:58 50.79172 7.19466 31497 ft 432 kts 291°
2026-05-04 17:58 50.80540 7.15250 31962 ft 430 kts 291°
2026-05-04 17:58 50.81902 7.11050 32426 ft 429 kts 291°
2026-05-04 17:58 50.83261 7.06861 32884 ft 428 kts 291°
2026-05-04 17:59 50.84614 7.02678 33343 ft 426 kts 291°
2026-05-04 17:59 50.85961 6.98504 33801 ft 425 kts 291°
2026-05-04 17:59 50.88644 6.90178 34563 ft 424 kts 291°
2026-05-04 18:00 50.89985 6.86017 34867 ft 425 kts 291°
2026-05-04 18:00 50.91328 6.81840 35175 ft 425 kts 291°
2026-05-04 18:00 50.92666 6.77664 35469 ft 426 kts 291°
2026-05-04 18:00 50.93986 6.73531 35763 ft 426 kts 291°
2026-05-04 18:01 50.95341 6.69283 36057 ft 426 kts 291°
2026-05-04 18:01 50.96662 6.65139 36360 ft 427 kts 292°
2026-05-04 18:01 50.98018 6.60881 36665 ft 427 kts 292°
2026-05-04 18:02 51.00674 6.52515 37207 ft 428 kts 292°
2026-05-04 18:02 51.02011 6.48291 37477 ft 428 kts 292°
2026-05-04 18:02 51.03346 6.44068 37751 ft 428 kts 292°
2026-05-04 18:02 51.04679 6.39842 37947 ft 429 kts 292°
2026-05-04 18:03 51.07352 6.31345 37986 ft 430 kts 292°
2026-05-04 18:03 51.10051 6.22718 37985 ft 441 kts 292°
2026-05-04 18:04 51.12799 6.13889 37981 ft 448 kts 292°
2026-05-04 18:05 51.16036 6.00024 37982 ft 447 kts 288°
2026-05-04 18:05 51.18504 5.90893 37982 ft 448 kts 290°
2026-05-04 18:06 51.22236 5.77216 37988 ft 448 kts 289°
2026-05-04 18:06 51.24584 5.67996 37992 ft 448 kts 288°
2026-05-04 18:07 51.26900 5.58755 37997 ft 449 kts 288°
2026-05-04 18:07 51.29233 5.49490 37994 ft 449 kts 288°
2026-05-04 18:08 51.31574 5.40227 37997 ft 450 kts 288°
2026-05-04 18:08 51.33912 5.30933 38000 ft 450 kts 288°
2026-05-04 18:09 51.38548 5.12327 37997 ft 450 kts 288°
2026-05-04 18:10 51.40859 5.03013 37993 ft 450 kts 288°
2026-05-04 18:10 51.43147 4.93735 38002 ft 451 kts 288°
2026-05-04 18:11 51.45450 4.84378 38001 ft 451 kts 288°
2026-05-04 18:11 51.47752 4.75014 38000 ft 451 kts 288°
2026-05-04 18:12 51.50039 4.65627 37995 ft 452 kts 288°
2026-05-04 18:12 51.52319 4.56226 37996 ft 452 kts 288°
2026-05-04 18:13 51.54594 4.46809 37996 ft 452 kts 288°
2026-05-04 18:14 51.57993 4.32638 37996 ft 453 kts 288°
2026-05-04 18:14 51.60256 4.23179 37998 ft 453 kts 288°
2026-05-04 18:15 51.64762 4.04230 38012 ft 454 kts 288°
2026-05-04 18:16 51.66973 3.94811 38018 ft 454 kts 288°
2026-05-04 18:16 51.69209 3.85291 38024 ft 454 kts 288°
2026-05-04 18:17 51.72547 3.70988 38031 ft 454 kts 288°
2026-05-04 18:18 51.75884 3.56660 38036 ft 455 kts 288°
2026-05-04 18:18 51.78076 3.47158 38037 ft 455 kts 288°
2026-05-04 18:19 51.81368 3.32781 38042 ft 455 kts 287°
2026-05-04 18:19 51.83556 3.23166 38049 ft 455 kts 286°
2026-05-04 18:20 51.84608 3.13213 37552 ft 446 kts 266°
2026-05-04 18:20 51.84375 3.08252 36871 ft 442 kts 261°
2026-05-04 18:20 51.84146 3.04914 36389 ft 442 kts 261°
2026-05-04 18:21 51.83816 3.00048 35686 ft 441 kts 261°
2026-05-04 18:21 51.83485 2.95130 34985 ft 440 kts 261°
2026-05-04 18:21 51.83159 2.90220 34286 ft 439 kts 261°
2026-05-04 18:21 51.82838 2.85329 33497 ft 438 kts 261°
2026-05-04 18:22 51.82517 2.80424 32583 ft 439 kts 261°
2026-05-04 18:22 51.82190 2.75505 31607 ft 442 kts 261°
2026-05-04 18:22 51.81855 2.70558 30599 ft 445 kts 261°
2026-05-04 18:22 51.81513 2.65570 29478 ft 448 kts 261°
2026-05-04 18:23 51.81165 2.60542 28352 ft 450 kts 261°
2026-05-04 18:23 51.80819 2.55545 27672 ft 443 kts 261°
2026-05-04 18:23 51.80482 2.50673 27271 ft 431 kts 261°
2026-05-04 18:23 51.80150 2.45896 26999 ft 427 kts 262°
2026-05-04 18:24 51.79813 2.41127 27020 ft 427 kts 261°
2026-05-04 18:24 51.79470 2.36356 27022 ft 428 kts 261°
2026-05-04 18:24 51.79129 2.31601 26890 ft 425 kts 261°
2026-05-04 18:24 51.78790 2.26886 26265 ft 420 kts 262°
2026-05-04 18:25 51.78453 2.22218 25624 ft 416 kts 262°
2026-05-04 18:25 51.78141 2.17589 25157 ft 414 kts 263°
2026-05-04 18:25 51.77861 2.12893 24991 ft 414 kts 263°
2026-05-04 18:25 51.77605 2.08326 25023 ft 415 kts 263°
2026-05-04 18:26 51.77346 2.03623 25020 ft 415 kts 263°
2026-05-04 18:26 51.77089 1.99044 25024 ft 415 kts 263°
2026-05-04 18:26 51.76821 1.94392 25025 ft 415 kts 263°
2026-05-04 18:26 51.76546 1.89748 25026 ft 415 kts 263°
2026-05-04 18:27 51.76263 1.85112 25025 ft 416 kts 263°
2026-05-04 18:27 51.75975 1.80470 25025 ft 416 kts 262°
2026-05-04 18:27 51.75685 1.75826 25026 ft 416 kts 262°
2026-05-04 18:27 51.75393 1.71186 25029 ft 416 kts 262°
2026-05-04 18:28 51.75099 1.66543 25027 ft 416 kts 262°
2026-05-04 18:28 51.74804 1.61905 25028 ft 416 kts 262°
2026-05-04 18:28 51.74510 1.57264 25026 ft 416 kts 262°
2026-05-04 18:28 51.74215 1.52621 25028 ft 416 kts 262°
2026-05-04 18:29 51.73918 1.47965 25027 ft 417 kts 262°
2026-05-04 18:29 51.73621 1.43320 24920 ft 414 kts 262°
2026-05-04 18:29 51.73326 1.38728 24312 ft 410 kts 262°
2026-05-04 18:29 51.73030 1.34165 23699 ft 407 kts 262°
2026-05-04 18:30 51.72436 1.25146 22374 ft 401 kts 262°
2026-05-04 18:30 51.72142 1.20734 21756 ft 397 kts 262°
2026-05-04 18:30 51.71840 1.16259 20800 ft 404 kts 262°
2026-05-04 18:31 51.71535 1.11765 20085 ft 403 kts 262°
2026-05-04 18:31 51.71232 1.07280 19457 ft 401 kts 262°
2026-05-04 18:31 51.70927 1.02811 18669 ft 403 kts 262°
2026-05-04 18:31 51.70619 0.98321 17895 ft 403 kts 262°
2026-05-04 18:32 51.70311 0.93837 17206 ft 400 kts 263°
2026-05-04 18:32 51.70003 0.89394 16637 ft 396 kts 263°
2026-05-04 18:32 51.69700 0.85020 16289 ft 386 kts 263°
2026-05-04 18:32 51.69407 0.80808 16087 ft 373 kts 263°
2026-05-04 18:33 51.69112 0.76683 16005 ft 362 kts 263°
2026-05-04 18:33 51.68829 0.72736 16033 ft 351 kts 263°
2026-05-04 18:33 51.68550 0.68832 16028 ft 350 kts 263°
2026-05-04 18:33 51.68270 0.64944 16024 ft 350 kts 263°
2026-05-04 18:34 51.67992 0.61046 16028 ft 350 kts 263°
2026-05-04 18:34 51.67712 0.57157 16025 ft 349 kts 262°
2026-05-04 18:34 51.67436 0.53325 16030 ft 340 kts 262°
2026-05-04 18:34 51.67162 0.49553 16029 ft 338 kts 262°
2026-05-04 18:35 51.66890 0.45800 16026 ft 338 kts 262°
2026-05-04 18:35 51.66617 0.42059 15674 ft 334 kts 262°
2026-05-04 18:35 51.66341 0.38347 15190 ft 334 kts 263°
2026-05-04 18:35 51.66063 0.34602 14363 ft 343 kts 263°
2026-05-04 18:36 51.65777 0.30741 13664 ft 349 kts 263°
2026-05-04 18:36 51.65437 0.26873 13080 ft 347 kts 261°
2026-05-04 18:36 51.65075 0.23041 12564 ft 344 kts 261°
2026-05-04 18:36 51.64718 0.19290 12157 ft 338 kts 261°
2026-05-04 18:37 51.64362 0.15554 11584 ft 338 kts 261°
2026-05-04 18:37 51.64011 0.11861 11086 ft 335 kts 261°
2026-05-04 18:37 51.63661 0.08171 10638 ft 331 kts 261°
2026-05-04 18:37 51.63317 0.04552 10267 ft 325 kts 261°
2026-05-04 18:38 51.62976 0.00967 9759 ft 323 kts 261°
2026-05-04 18:38 51.62641 -0.02547 9251 ft 321 kts 261°
2026-05-04 18:38 51.62303 -0.06078 8746 ft 318 kts 261°
2026-05-04 18:38 51.61965 -0.09587 8270 ft 316 kts 261°
2026-05-04 18:39 51.61628 -0.13066 7776 ft 314 kts 261°
2026-05-04 18:39 51.61291 -0.16533 7303 ft 312 kts 261°
2026-05-04 18:39 51.60956 -0.19989 7060 ft 303 kts 261°
2026-05-04 18:39 51.60643 -0.23203 7051 ft 287 kts 261°
2026-05-04 18:40 51.60341 -0.26293 7054 ft 272 kts 261°
2026-05-04 18:40 51.60050 -0.29274 7026 ft 267 kts 261°
2026-05-04 18:40 51.59771 -0.32146 7030 ft 253 kts 261°
2026-05-04 18:40 51.59510 -0.34864 7027 ft 240 kts 261°
2026-05-04 18:41 51.59258 -0.37494 7028 ft 237 kts 261°
2026-05-04 18:41 51.59007 -0.40112 7028 ft 237 kts 261°
2026-05-04 18:41 51.58755 -0.42734 7030 ft 237 kts 261°
2026-05-04 18:41 51.58502 -0.45354 7031 ft 237 kts 261°
2026-05-04 18:42 51.58251 -0.47976 7029 ft 237 kts 261°
2026-05-04 18:42 51.58000 -0.50599 7027 ft 238 kts 261°
2026-05-04 18:42 51.57750 -0.53224 7028 ft 237 kts 261°
2026-05-04 18:42 51.57500 -0.55845 7028 ft 237 kts 261°
2026-05-04 18:43 51.57247 -0.58473 7028 ft 238 kts 261°
2026-05-04 18:43 51.56996 -0.61098 7029 ft 238 kts 261°
2026-05-04 18:43 51.56746 -0.63715 6772 ft 236 kts 261°
2026-05-04 18:43 51.56494 -0.66324 6481 ft 236 kts 261°
2026-05-04 18:44 51.56239 -0.68918 6165 ft 235 kts 261°
2026-05-04 18:44 51.56066 -0.70664 6039 ft 232 kts 261°
2026-05-04 18:44 51.55728 -0.74083 6013 ft 236 kts 261°
2026-05-04 18:44 51.55472 -0.76687 6011 ft 236 kts 261°
2026-05-04 18:45 51.55010 -0.79187 5757 ft 234 kts 238°
2026-05-04 18:45 51.53851 -0.80958 5421 ft 233 kts 206°
2026-05-04 18:45 51.52277 -0.81548 5078 ft 234 kts 184°
2026-05-04 18:45 51.50681 -0.81637 4947 ft 225 kts 178°
2026-05-04 18:46 51.49234 -0.80965 4819 ft 214 kts 144°
2026-05-04 18:46 51.48252 -0.79266 4696 ft 204 kts 124°
2026-05-04 18:46 51.47492 -0.77404 4550 ft 196 kts 121°
2026-05-04 18:46 51.46779 -0.75581 4346 ft 191 kts 121°
2026-05-04 18:47 51.46145 -0.73724 4026 ft 189 kts 103°
2026-05-04 18:47 51.46337 -0.71738 3766 ft 183 kts 57°
2026-05-04 18:47 51.47037 -0.70037 3455 ft 183 kts 60°
2026-05-04 18:47 51.47452 -0.68118 3152 ft 182 kts 77°
2026-05-04 18:48 51.47606 -0.66093 2759 ft 187 kts 83°
2026-05-04 18:48 51.47672 -0.64060 2591 ft 178 kts 86°
2026-05-04 18:48 51.47681 -0.62144 2448 ft 165 kts 86°
2026-05-04 18:48 51.47689 -0.60285 1994 ft 168 kts 87°
2026-05-04 18:49 51.47698 -0.58436 1560 ft 164 kts 86°
2026-05-04 18:49 51.47691 -0.56668 1212 ft 149 kts 87°
2026-05-04 18:49 51.47695 -0.55087 918 ft 136 kts 85°
2026-05-04 18:49 51.47718 -0.53592 673 ft 132 kts 85°
2026-05-04 18:50 51.47743 -0.52132 511 ft 132 kts 86°
2026-05-04 18:50 51.47751 -0.50687 358 ft 128 kts 87°
2026-05-04 18:50 51.47755 -0.49244 215 ft 131 kts 88°
2026-05-04 18:50 51.47753 -0.47774 88 ft 124 kts 88°
2026-05-04 18:51 51.47761 -0.46623 90 ft 78 kts 90°
2026-05-04 18:51 51.47763 -0.45979 86 ft 49 kts 89°
2026-05-04 18:51 51.47765 -0.45444 86 ft 47 kts 89°
2026-05-04 18:51 51.47758 -0.45065 89 ft 30 kts 92°
2026-05-04 18:52 51.47686 -0.44834 89 ft 17 kts 149°
2026-05-04 18:52 51.47632 -0.44785 88 ft 8 kts 167°
2026-05-04 18:52 51.47601 -0.44863 87 ft 10 kts 253°
2026-05-04 18:52 51.47596 -0.44992 89 ft 13 kts 271°
2026-05-04 18:53 51.47597 -0.45153 87 ft 16 kts 270°
2026-05-04 18:53 51.47596 -0.45344 87 ft 19 kts 269°
2026-05-04 18:53 51.47595 -0.45567 89 ft 22 kts 269°
2026-05-04 18:53 51.47594 -0.45825 88 ft 25 kts 270°
2026-05-04 18:54 51.47593 -0.46113 87 ft 27 kts 269°
2026-05-04 18:54 51.47593 -0.46394 87 ft 24 kts 269°
2026-05-04 18:54 51.47592 -0.46609 87 ft 20 kts 271°
2026-05-04 18:54 51.47588 -0.46842 87 ft 22 kts 265°
2026-05-04 18:55 51.47581 -0.47100 90 ft 24 kts 269°
2026-05-04 18:55 51.47579 -0.47652 89 ft 26 kts 270°
2026-05-04 18:55 51.47580 -0.47944 90 ft 27 kts 269°
2026-05-04 18:56 51.47578 -0.48226 89 ft 24 kts 269°
2026-05-04 18:56 51.47572 -0.48427 87 ft 10 kts 264°
2026-05-04 18:56 51.47538 -0.48496 87 ft 8 kts 169°
2026-05-04 18:56 51.47469 -0.48477 87 ft 13 kts 177°
2026-05-04 18:57 51.47371 -0.48476 87 ft 15 kts 180°
2026-05-04 18:57 51.47265 -0.48475 87 ft 15 kts 179°
2026-05-04 18:57 51.47160 -0.48473 87 ft 16 kts 179°
2026-05-04 18:57 51.47047 -0.48471 87 ft 17 kts 179°
2026-05-04 18:58 51.46926 -0.48471 87 ft 17 kts 180°
2026-05-04 18:58 51.46890 -0.48471 89 ft 2 kts 180°
2026-05-04 18:58 51.46876 -0.48513 87 ft 8 kts 270°
2026-05-04 18:58 51.46877 -0.48607 87 ft 9 kts 267°
2026-05-04 18:59 51.46875 -0.48698 87 ft 2 kts 269°
2026-05-04 18:59 51.46879 -0.48719 89 ft 2 kts 314°
2026-05-04 18:59 51.46901 -0.48718 89 ft 5 kts
2026-05-04 18:59 51.46931 -0.48718 88 ft 0 kts 359°
2026-05-04 19:01 51.46983 -0.48718 89 ft 0 kts 359°